Location: Newark
(45.9456°N, 15.4064°E)
Time: 00:29:50
(UTC+00:00)

Courier 1B Rocket - Pass Details

Date: 20 January 2020
Orbit: 920 x 1202 km, 28.2° (Epoch: 24 February)

Event Time Altitude Azimuth Distance (km) Brightness Sun altitude
Rises 12:12:47 0° 212° (SSW) 3,740 9.4 22.3°
Reaches altitude 10° 12:18:23 10° 175° (S) 2,712 8.8 22.1°
Maximum altitude 12:19:33 11° 164° (SSE) 2,661 8.4 22.0°
Drops below altitude 10° 12:20:42 10° 154° (SSE) 2,684 8.1 21.9°
Sets 12:26:04 0° 116° (ESE) 3,578 8.0 21.6°
